Flag for Canada Weather past 2 weeks in Yorkton, Saskatchewan, Canada

Now
-4 °F

Sunny.


Feels Like: -18 °F
Forecast: N/A
Wind: 7 mph from Southwest

Location: Yorkton

Current Time: Dec 26, 2014 at 3:40:49 PM

Latest Report: Dec 26, 2014 at 3:00 PM


Visibility: 9 mi

Pressure: 30.32 "Hg

Humidity: 77%

Dew point: -9 °F

Location of YorktonLocation

Historic Weather in Yorkton — Graph

°F

Yorkton temperature yesterday

Maximum temperature yesterday: 23 °F (at 2:00 AM)
Minimum temperature yesterday: -9 °F (at 11:00 PM)
Average temperature yesterday: 13 °F

Past Weeks' High & Low Weather Summary

 TemperatureHumidityPressure
High39 °F (Dec 11, 2:00 PM)100% (Dec 13, 7:00 AM)30.47 "Hg (Dec 13, 7:00 AM)
Low-11 °F (Dec 26, 12:03 AM)70% (Dec 12, 2:00 PM)29.45 "Hg (Dec 24, 2:00 PM)
Average21 °F91%30.00 "Hg
* Reported Dec 11 2:00 PM — Dec 26 2:00 PM, Yorkton, Weather by CustomWeather, © 2014

Note: Actual official high and low records may vary slightly from our data, if they occured in-between our weather recording intervals... More about our weather records

Advertising

Yorkton weather history for previous 24 hours

 ConditionsComfort  
Time TempWeatherWind HumidityBarometerVisibility
2:00 PM
Dec 26
-4 °FSunny.5 mph77%30.33 "Hg9 mi
1:00 PM-8 °FSunny.5 mph84%30.35 "Hg9 mi
12:00 PM-8 °FLight snow. Sunny.7 mph84%30.36 "Hg9 mi
11:58 AM-8 °FLight snow. Sunny.6 mph84%30.36 "Hg7 mi
11:00 AM-8 °FOvercast.5 mph77%30.37 "Hg9 mi
10:03 AM-8 °FLight snow. Overcast.5 mph77%30.37 "Hg9 mi
9:00 AM-8 °FOvercast.7 mph84%30.34 "Hg9 mi
8:00 AM-8 °FOvercast.9 mph84%30.32 "Hg9 mi
7:00 AM-8 °FOvercast.6 mph77%30.32 "Hg9 mi
5:00 AM-8 °FOvercast.9 mph84%30.29 "Hg9 mi
4:00 AM-8 °FOvercast.7 mph84%30.28 "Hg9 mi
3:00 AM-8 °FOvercast.9 mph84%30.27 "Hg9 mi
2:00 AM-9 °FOvercast.7 mph84%30.25 "Hg9 mi
12:03 AM-11 °FPassing clouds.7 mph84%30.24 "Hg9 mi
11:00 PM
Dec 25
-9 °FClear.12 mph84%30.22 "Hg9 mi
10:00 PM-8 °FClear.12 mph84%30.19 "Hg9 mi
9:00 PM-6 °FClear.12 mph84%30.17 "Hg9 mi
8:00 PM-4 °FClear.10 mph77%30.16 "Hg9 mi
7:00 PM-2 °FClear.17 mph84%30.14 "Hg9 mi
6:00 PM0 °FClear.17 mph84%30.11 "Hg9 mi
5:01 PM5 °FLight snow. Passing clouds.14 mph85%30.08 "Hg9 mi
4:00 PM10 °FLight snow. Overcast.18 mph92%30.05 "Hg5 mi
3:56 PM10 °FLight snow. Overcast.17 mph92%30.03 "Hg5 mi
3:00 PM14 °FCold.15 mph92%29.99 "Hg9 mi
Weather by CustomWeather, © 2014

See weather overviewHow to use our weather pages